OBJECT F, 63215

Orbit data source: Space-Track

You're viewing an Uncataloged Satellite

Recently launched and/or uncataloged satellites may have evolving metadata. Metadata may include but not limited to: Owner, Maufacturer, Bus, Motor, and Mission.

OBJECT F, 63215 is a satellite in SSO that was launched on Sat, 15 Mar 2025 UTC via an FALCON 9 launch vehicle from the Air Force Western Test Range (AFWTR). Unknown objects in Earth's orbit typically refer to objects detected orbiting the Earth but have not yet been identified or cataloged. These objects could be anything from previously untracked satellites, spent rocket stages, debris from satellite collisions, or even natural meteoroids temporarily captured by Earth's gravity.

Loading next visibility...
Identifier
63215, 2025-052F
Orbit
SSO
Country
Flag of TBDTBD
Related business
Flag of ILTel Aviv University (IL)
Manufacturer
ISA/TAU
Mission
Operational Amateur Communications
Bus & Motor
CUBESAT 1U, Unknown motor
Mass
1 kg wet, 1 kg dry
Launch date (UTC)
2025-03-15 (1 year ago)
Launch vehicle
FALCON 9
Launch site
Air Force Western Test Range (AFWTR)
Object type
Unknown
Shape & HBR
Box, 0.1 m
Radar Cross Section
0.015 m², Medium (>0.1 m² and < 1m²)

Expand to show TLE details & history
Last TLE update: 1 day ago

TLE from 1 day ago
0 OBJECT F
1 63215U 25052F   26206.28418526  .00018170  00000-0  52586-3 0  9999
2 63215  97.3857 102.6853 0002499  37.3802 322.7615 15.35649939 75956
Epoch: 2026-07-25T06:49Z
TLE epoch observation values (Epoch: 2026-07-25T06:49:13.606Z)
Latitude
-0.00004°
Longitude
57.37994°
Altitude
460.742 km
Speed
7.637 km/s
True Right ascension
06h 50m 44s
True Declination
0° 00' 00"
Sunlit
Object was in daylight at epoch
Visualization orbit readout
Latitude
Unknown
Longitude
Unknown
Altitude
Unknown
Speed
Unknown
Apparent Right ascension
Unknown
Apparent Declination
Unknown
Sunlit
N/A
Visualization observer readout
Local Sidereal Time
00:06:44
Azimuth
Unknown
Elevation
Unknown
Doppler factor
Unknown
Orbital elements
Apogee altitude
457.643 km
Perigee altitude
454.227 km
Semi-major axis
6,834.072 km
Eccentricity
0.00025
Inclination
97.3857°
RAAN
102.6853°
Arg. of periapsis
37.3802°
True anomaly
322.74417°
Mean anomaly
322.7615°
Eccentric anomaly
322.75283°
Mean motion
3.8417 °/min
Orbital period
93.71 mins
BSTAR
0.00052586
Loading maneuver chart data...
Computing Atmospheric mass density...
Loading historical data...
Loading historical data...
Loading historical data...
Loading historical data...
Loading historical data...
Loading historical data...
Loading historical data...

Documentation

Showing up to 5 results
|